CDT,Max TemperatureF,Mean TemperatureF,Min TemperatureF,Max Dew PointF,MeanDew PointF,Min DewpointF,Max Humidity, Mean Humidity, Min Humidity, Max Sea Level PressureIn, Mean Sea Level PressureIn, Min Sea Level PressureIn, Max VisibilityMiles, Mean VisibilityMiles, Min VisibilityMiles, Max Wind SpeedMPH, Mean Wind SpeedMPH, Max Gust SpeedMPH,PrecipitationIn, CloudCover, Events, WindDirDegrees
2013-7-1,86,77,67,63,57,49,87,60,32,30.11,30.01,29.91,10,10,10,14,5,18,0.01,2,,47
2013-7-2,89,74,59,57,47,39,84,52,19,30.12,30.06,29.98,10,10,9,18,3,25,0.00,1,,49
2013-7-3,95,76,57,47,41,36,55,34,13,30.06,29.98,29.88,10,10,10,17,5,22,0.00,0,,68
2013-7-4,95,80,64,58,48,40,54,37,20,29.96,29.89,29.81,10,10,10,16,8,22,0.00,1,,164
2013-7-5,99,86,72,55,50,44,53,35,17,29.93,29.86,29.77,10,10,10,20,11,26,0.00,0,,161
2013-7-6,98,86,73,60,52,46,57,38,18,29.90,29.84,29.76,10,10,10,21,11,28,0.00,0,,158
2013-7-7,98,84,69,64,56,52,70,47,23,29.94,29.88,29.83,10,10,10,20,8,25,0.00,1,,145
2013-7-8,96,86,76,69,64,59,71,51,30,30.03,29.97,29.91,10,10,10,18,10,25,0.00,2,,172
2013-7-9,98,86,73,68,62,56,74,51,27,30.15,30.03,29.95,10,10,10,20,9,25,0.00,2,,169
2013-7-10,101,87,72,69,60,55,73,48,23,30.06,29.97,29.86,10,10,10,16,7,23,0.00,1,,171
2013-7-11,99,88,77,66,60,55,67,46,24,29.96,29.90,29.81,10,10,10,16,7,25,0.00,1,,160
2013-7-12,102,88,74,67,55,41,62,38,14,29.92,29.87,29.82,10,10,10,20,7,25,0.00,1,,164
2013-7-13,103,88,72,62,51,44,50,33,15,29.97,29.89,29.82,10,10,10,18,6,25,0.00,0,,155
2013-7-14,103,86,69,63,54,49,73,46,19,29.88,29.82,29.73,10,10,10,30,11,37,0.00,1,,173
2013-7-15,71,68,65,67,65,63,100,89,78,30.08,30.00,29.88,10,6,2,21,12,30,1.23,8,Rain,31
2013-7-16,82,75,68,72,69,66,97,88,79,30.14,30.08,30.04,10,9,2,20,6,24,0.73,6,Rain,62
2013-7-17,82,76,70,72,70,68,93,81,69,30.24,30.17,30.09,10,9,1,28,7,36,0.50,6,Rain,72
2013-7-18,84,77,70,72,69,66,93,76,58,30.22,30.14,30.03,10,9,0,26,5,31,0.67,5,Fog-Rain,98
2013-7-19,88,78,68,71,67,64,97,72,46,30.13,30.01,29.90,10,10,2,12,4,17,0.00,1,,158
2013-7-20,92,82,71,69,66,61,84,60,36,29.96,29.91,29.81,10,10,10,15,6,21,0.00,2,,184
2013-7-21,93,82,71,70,67,64,93,69,44,29.92,29.87,29.81,10,10,10,17,7,22,T,1,,178
2013-7-22,94,84,74,72,69,66,87,64,41,30.01,29.89,29.81,10,10,2,18,8,24,0.00,2,,176
2013-7-23,96,86,76,73,69,63,82,61,39,30.00,29.89,29.82,10,10,10,17,7,22,0.00,1,,179
2013-7-24,97,85,72,71,65,62,74,54,33,29.94,29.88,29.84,10,10,10,15,5,21,0.00,0,,147
2013-7-25,98,86,74,70,65,59,79,55,30,30.01,29.95,29.90,10,10,10,15,5,20,0.00,1,,138
2013-7-26,99,89,79,69,65,58,69,51,33,30.00,29.94,29.86,10,10,10,20,9,24,0.00,1,,189
2013-7-27,92,81,70,67,63,56,84,58,32,30.10,29.99,29.88,10,10,10,15,7,22,0.00,1,,59
2013-7-28,98,81,64,67,62,58,81,54,27,29.94,29.88,29.77,10,10,10,20,5,25,0.03,1,,141
2013-7-29,98,88,78,72,66,55,74,52,30,29.93,29.88,29.85,10,10,10,21,9,26,0.00,1,,177
2013-7-30,100,89,77,70,65,59,74,53,31,30.01,29.95,29.89,10,10,10,18,9,25,0.00,0,,188
2013-7-31,102,90,77,69,63,60,74,50,25,30.05,29.98,29.91,10,10,10,15,8,21,0.00,1,,160